Location: Fours
(44.3167°N, 6.7000°E)
Time: 23:03:10
(UTC+00:00)

Cosmos 1980 Rocket - Pass Details

Date: 16 October 2021
Orbit: 828 x 851 km, 71.0° (Epoch: 05 December)

Event Time Altitude Azimuth Distance (km) Brightness Sun altitude
Rises 17:14:46 0° 175° (S) 3,371 5.4 -5.7°
Reaches altitude 10° 17:17:24 10° 166° (SSE) 2,446 4.5 -6.2°
Maximum altitude 17:22:20 33° 104° (ESE) 1,397 2.9 -7.0°
Drops below altitude 10° 17:27:19 10° 43° (NE) 2,475 4.2 -7.9°
Sets 17:29:59 0° 34° (NE) 3,418 5.0 -8.4°
